Satellite: METEOR-M Catalog number: 35865 Epoch time: 11173.78103354 Element set: 480 Inclination: 098.7057 deg RA of node: 228.8375 deg Eccentricity: 0.0003339 Arg of perigee: 026.8609 deg Mean anomaly: 333.2689 deg Mean motion: 14.21839888 rev/day Decay rate: 1.76e-06 rev/day^2 Epoch rev: 9138 Checksum: 334
Satellite: RS-38 Catalog number: 35869 Epoch time: 11180.88703899 Element set: 0496 Inclination: 098.7022 deg RA of node: 235.8860 deg Eccentricity: 0.0004889 Arg of perigee: 006.3205 deg Mean anomaly: 353.8024 deg Mean motion: 14.22015250 rev/day Decay rate: 1.77e-06 rev/day^2 Epoch rev: 09240 Checksum: 316
/EX